FW8702 Weather Reports


time (UTC)temp
C
wind
direction
speed
KPH
gust
KPH
rain 1hr
cm
rain 24hr
cm
rain mn
cm
humidity
%
barometer
mb
20260509091531 20 188 0.0 1.6 0.00 0.00 0.00 66 1018.9
20260509090025 19 130 0.0 0.0 0.00 0.00 0.00 67 1019.0
20260509084537 18 67 0.0 1.6 0.00 0.00 0.00 69 1019.1
20260509083105 17 298 0.0 0.0 0.00 0.00 0.00 71 1019.1
20260509081524 17 301 0.0 4.8 0.00 0.00 0.00 72 1019.2
20260509080022 17 312 0.0 6.4 0.00 0.00 0.00 71 1019.2
20260509074535 17 265 0.0 1.6 0.00 0.00 0.00 71 1019.3
20260509073053 17 47 0.0 0.0 0.00 0.00 0.00 73 1019.4
20260509071519 16 72 0.0 1.6 0.00 0.00 0.00 72 1019.4
20260509070020 16 8 0.0 1.6 0.00 0.00 0.00 74 1019.4
20260509064537 15 30 0.0 0.0 0.00 0.00 0.00 77 1019.3
20260509063101 15 296 0.0 0.0 0.00 0.00 0.00 78 1019.4
20260509061526 14 293 0.0 0.0 0.00 0.00 0.00 82 1019.3
20260509060015 13 104 0.0 0.0 0.00 0.00 0.00 82 1019.4
20260509054527 13 119 0.0 0.0 0.00 0.00 0.00 84 1019.4
20260509053053 12 121 0.0 0.0 0.00 0.00 0.00 84 1019.3
20260509051517 12 301 0.0 0.0 0.00 0.00 0.00 86 1019.2
20260509050039 11 299 0.0 0.0 0.00 0.00 0.00 87 1019.3
20260509044550 11 299 0.0 0.0 0.00 0.00 0.00 87 1019.1
20260509043015 11 304 0.0 0.0 0.00 0.00 0.00 87 1018.9
20260509041545 11 308 0.0 0.0 0.00 0.00 0.00 86 1018.8
20260509040100 11 304 0.0 1.6 0.00 0.00 0.00 87 1018.8
20260509034526 11 8 0.0 0.0 0.00 0.00 0.00 87 1018.7
20260509033056 11 8 0.0 0.0 0.00 0.00 0.00 85 1018.7
20260509031530 12 8 0.0 0.0 0.00 0.00 0.00 86 1018.7
20260509030032 12 13 0.0 1.6 0.00 0.00 0.00 87 1018.8
20260509024539 11 298 0.0 1.6 0.00 0.00 0.00 88 1018.9
20260509023058 11 298 0.0 0.0 0.00 0.00 0.00 88 1018.6
20260509021519 11 304 0.0 1.6 0.00 0.00 0.00 89 1018.6
20260509020035 11 305 0.0 0.0 0.00 0.00 0.00 90 1018.8
20260509014501 10 333 0.0 0.0 0.00 0.00 0.00 90 1018.8
20260509013040 10 333 0.0 0.0 0.00 0.00 0.00 89 1019.0
20260509011600 11 333 0.0 0.0 0.00 0.00 0.00 89 1019.1
20260509010103 11 333 0.0 0.0 0.00 0.00 0.00 89 1019.1
20260509004538 11 333 0.0 0.0 0.00 0.00 0.00 88 1019.0
20260509003042 11 325 0.0 0.0 0.00 0.00 0.00 88 1019.1
20260509001503 12 319 0.0 0.0 0.00 0.00 0.00 87 1019.0
20260509000016 12 8 0.0 8.0 0.00 0.00 0.00 88 1018.9
20260508234541 11 234 0.0 0.0 0.00 0.00 0.00 91 1018.9
20260508233002 11 233 0.0 0.0 0.00 0.00 0.00 90 1018.7
20260508231514 11 232 0.0 0.0 0.00 0.00 0.00 89 1018.7
20260508230009 11 232 0.0 0.0 0.00 0.00 0.00 89 1019.0
20260508224523 11 232 0.0 0.0 0.00 0.00 0.00 89 1019.0
20260508223053 11 232 0.0 0.0 0.00 0.00 0.00 89 1018.9
20260508221529 11 232 0.0 0.0 0.00 0.00 0.00 89 1018.8
20260508220033 11 232 0.0 0.0 0.00 0.00 0.00 88 1018.9
20260508214609 11 232 0.0 0.0 0.00 0.00 0.00 88 1018.8
20260508213028 11 232 0.0 0.0 0.00 0.00 0.00 88 1018.7
20260508211535 11 232 0.0 0.0 0.00 0.00 0.00 88 1018.7
20260508210035 12 232 0.0 0.0 0.00 0.00 0.00 87 1018.8
20260508204547 12 232 0.0 0.0 0.00 0.00 0.00 87 1018.7
20260508203013 12 232 0.0 0.0 0.00 0.00 0.00 86 1018.6
20260508201549 13 232 0.0 0.0 0.00 0.00 0.00 86 1018.5
20260508200045 13 232 0.0 0.0 0.00 0.00 0.00 84 1018.4
20260508194503 13 232 0.0 0.0 0.00 0.00 0.00 84 1018.1
20260508193103 13 231 0.0 0.0 0.00 0.00 0.00 83 1017.8
20260508191530 14 231 0.0 0.0 0.00 0.00 0.00 81 1017.6
20260508190030 15 231 0.0 0.0 0.00 0.00 0.00 80 1017.4
20260508184540 16 231 0.0 0.0 0.00 0.00 0.00 77 1017.1
20260508183003 17 231 0.0 0.0 0.00 0.00 0.00 72 1017.0
20260508181549 18 231 0.0 0.0 0.00 0.00 0.00 69 1017.1
20260508180104 18 231 0.0 0.0 0.00 0.00 0.00 67 1016.8
20260508174519 19 232 0.0 0.0 0.00 0.00 0.00 65 1016.7
20260508173048 20 148 0.0 0.0 0.00 0.00 0.00 61 1016.6
20260508171509 20 148 0.0 0.0 0.00 0.00 0.00 62 1016.7
20260508170026 19 127 0.0 0.0 0.00 0.00 0.00 61 1016.7
20260508164600 19 102 0.0 0.0 0.00 0.00 0.00 62 1016.7
20260508163001 20 94 0.0 3.2 0.00 0.00 0.00 61 1016.7
20260508161604 20 246 0.0 0.0 0.00 0.00 0.00 58 1016.6
20260508160036 20 246 0.0 1.6 0.00 0.00 0.00 64 1016.6
20260508154535 19 246 0.0 1.6 0.00 0.00 0.00 63 1016.6
20260508153105 19 149 0.0 1.6 0.00 0.00 0.00 61 1016.9
20260508151524 20 165 0.0 0.0 0.00 0.00 0.00 62 1016.8
20260508150023 20 204 0.0 1.6 0.00 0.00 0.00 66 1016.9
20260508144535 19 221 0.0 8.0 0.00 0.00 0.00 68 1017.2
20260508143049 18 140 0.0 9.7 0.00 0.00 0.00 69 1017.4
20260508141514 19 216 0.0 4.8 0.00 0.00 0.00 68 1017.2
20260508140115 18 216 0.0 8.0 0.00 0.00 0.00 65 1017.2
20260508134525 18 247 0.0 16.1 0.00 0.00 0.00 65 1017.2
20260508133054 18 267 0.0 19.3 0.00 0.00 0.00 63 1017.3
20260508131517 20 214 0.0 6.4 0.00 0.00 0.00 65 1017.3
20260508130016 19 276 0.0 12.9 0.00 0.00 0.00 68 1017.4
20260508124527 20 232 0.0 3.2 0.00 0.00 0.00 64 1017.2
20260508123057 20 233 0.0 3.2 0.00 0.00 0.00 66 1017.3
20260508121518 21 244 0.0 1.6 0.00 0.00 0.00 65 1017.5
20260508120038 21 229 0.0 1.6 0.00 0.00 0.00 66 1017.4
20260508114607 20 301 0.0 3.2 0.00 0.00 0.00 67 1017.4
20260508113013 20 209 0.0 8.0 0.00 0.00 0.00 66 1017.5
20260508111533 20 217 0.0 9.7 0.00 0.00 0.00 66 1017.7
20260508110021 20 244 0.0 1.6 0.00 0.00 0.00 67 1017.7
20260508104537 20 286 0.0 4.8 0.00 0.00 0.00 68 1018.0
20260508103004 19 296 0.0 3.2 0.00 0.00 0.00 68 1018.2
20260508101517 18 231 0.0 0.0 0.00 0.00 0.00 71 1018.3
20260508100027 18 243 0.0 9.7 0.00 0.00 0.00 70 1018.3
20260508094542 18 305 0.0 1.6 0.00 0.00 0.00 71 1018.2
20260508093036 18 156 0.0 0.0 0.00 0.00 0.00 71 1018.3